Weather History for Weaverville, CA

Change the Weather History Date:

Thursday, October 11, 2012

  Actual Average (KRDD) Record (KRDD)
Temperature  
Mean Temperature 60 °F -  
Max Temperature 82 °F 81 °F 105 °F (1991)
Min Temperature 39 °F 51 °F 37 °F (1998)
Degree Days  
Heating Degree Days 4    
Cooling Degree Days 0    
Growing Degree Days 10 (Base 50)    
Moisture  
Dew Point 37 °F    
Average Humidity 57    
Maximum Humidity 87    
Minimum Humidity 14    
Precipitation  
Precipitation 0.00 in 0.05 in 0.18 in (2000)
Month to date precipitation 0.41  
Year to date precipitation 22.18  
Since 1 July precipitation 1.32  
Sea Level Pressure  
Sea Level Pressure 29.89 in    
Wind  
Wind Speed 1 mph (WSW)    
Max Wind Speed 5 mph    
Max Gust Speed -    
Visibility 10 miles    
Events      
T = Trace of Precipitation, MM = Missing Value Source: NWS Daily Summary

Daily Weather History Graph

Daily Weather History Graph

Search for Another Location

Airport:

Trip Planner

Search our weather history database for the weather conditions in past years. The results will help you decide how hot, cold, wet, or windy it might be!

Date:

Astronomy

Oct. 11, 2012 Rise Set
Actual Time 7:19 AM PDT 6:36 PM PDT
Civil Twilight 6:51 AM PDT 7:04 PM PDT
Nautical Twilight 6:20 AM PDT 7:35 PM PDT
Astronomical Twilight 5:48 AM PDT 8:07 PM PDT
Moon 3:02 AM PDT (10/11) 4:17 PM PDT (10/11)
Length of Visible Light 12h 12m
Length of Day
11h 17m
Waning Crescent, 17% of the Moon is Illuminated
Oct 11
Waning Crescent
Oct 15
New
Oct 21
First Quarter
Oct 29
Full
Nov 6
Last Quarter

Hourly Weather History & Observations

Time (PDT) Temp. Windchill Dew Point Humidity Pressure Visibility Wind Dir Wind Speed Gust Speed Precip Events Conditions
12:15 AM 48.2 °F - 35.6 °F 62% 29.94 in 10.0 mi East 3.5 mph - N/A   Unknown
12:35 AM 46.4 °F - 35.6 °F 66% 29.94 in 10.0 mi Calm Calm - N/A   Unknown
12:55 AM 46.4 °F - 35.6 °F 66% 29.94 in 10.0 mi Calm Calm - N/A   Unknown
1:15 AM 46.4 °F - 35.6 °F 66% 29.94 in 10.0 mi Calm Calm - N/A   Unknown
1:35 AM 44.6 °F - 37.4 °F 76% 29.94 in 10.0 mi Calm Calm - N/A   Unknown
1:55 AM 44.6 °F - 37.4 °F 76% 29.94 in 10.0 mi Calm Calm - N/A   Unknown
2:15 AM 44.6 °F - 37.4 °F 76% 29.95 in 10.0 mi Calm Calm - N/A   Unknown
2:35 AM 44.6 °F 43.1 °F 35.6 °F 71% 29.95 in 10.0 mi North 3.5 mph - N/A   Unknown
2:55 AM 44.6 °F - 35.6 °F 71% 29.95 in 10.0 mi Calm Calm - N/A   Unknown
3:15 AM 42.8 °F - 35.6 °F 76% 29.95 in 10.0 mi Calm Calm - N/A   Unknown
3:35 AM 42.8 °F - 35.6 °F 76% 29.95 in 10.0 mi Calm Calm - N/A   Unknown
3:55 AM 42.8 °F - 35.6 °F 76% 29.95 in 10.0 mi Calm Calm - N/A   Unknown
4:15 AM 42.8 °F 41.1 °F 35.6 °F 76% 29.95 in 10.0 mi NNE 3.5 mph - N/A   Unknown
4:35 AM 41.0 °F - 35.6 °F 81% 29.95 in 10.0 mi Calm Calm - N/A   Unknown
5:15 AM 41.0 °F - 35.6 °F 81% 29.95 in 10.0 mi Calm Calm - N/A   Unknown
5:55 AM 39.2 °F - 35.6 °F 87% 29.94 in 10.0 mi Calm Calm - N/A   Unknown
6:15 AM 39.2 °F - 35.6 °F 87% 29.94 in 10.0 mi Calm Calm - N/A   Unknown
6:35 AM 39.2 °F - 35.6 °F 87% 29.94 in 10.0 mi Calm Calm - N/A   Unknown
6:55 AM 39.2 °F - 35.6 °F 87% 29.94 in 10.0 mi Calm Calm - N/A   Unknown
7:15 AM 39.2 °F - 35.6 °F 87% 29.94 in 10.0 mi Calm Calm - N/A   Unknown
7:35 AM 39.2 °F - 35.6 °F 87% 29.95 in 10.0 mi Calm Calm - N/A   Unknown
7:55 AM 39.2 °F - 35.6 °F 87% 29.94 in 10.0 mi Calm Calm - N/A   Unknown
8:15 AM 39.2 °F - 35.6 °F 87% 29.94 in 10.0 mi Calm Calm - N/A   Unknown
8:35 AM 41.0 °F - 35.6 °F 81% 29.94 in 10.0 mi Calm Calm - N/A   Unknown
8:55 AM 44.6 °F - 35.6 °F 71% 29.94 in 10.0 mi Calm Calm - N/A   Unknown
9:15 AM 48.2 °F - 37.4 °F 66% 29.93 in 10.0 mi Calm Calm - N/A   Unknown
9:35 AM 50.0 °F - 37.4 °F 62% 29.93 in 10.0 mi Calm Calm - N/A   Unknown
9:55 AM 53.6 °F - 37.4 °F 54% 29.92 in 10.0 mi SSW 3.5 mph - N/A   Unknown
10:15 AM 55.4 °F - 39.2 °F 54% 29.91 in 10.0 mi Calm Calm - N/A   Unknown
10:35 AM 57.2 °F - 39.2 °F 51% 29.90 in 10.0 mi SW 3.5 mph - N/A   Unknown
11:15 AM 60.8 °F - 39.2 °F 45% 29.90 in 10.0 mi Calm Calm - N/A   Unknown
11:55 AM 64.4 °F - 39.2 °F 40% 29.89 in 10.0 mi Calm Calm - N/A   Unknown
12:35 PM 68.0 °F - 39.2 °F 35% 29.88 in 10.0 mi Calm Calm - N/A   Unknown
12:55 PM 69.8 °F - 39.2 °F 33% 29.87 in 10.0 mi Calm Calm - N/A   Unknown
1:15 PM 71.6 °F - 39.2 °F 31% 29.86 in 10.0 mi SW 4.6 mph - N/A   Unknown
1:35 PM 73.4 °F - 37.4 °F 27% 29.84 in 10.0 mi SW 4.6 mph - N/A   Unknown
1:55 PM 75.2 °F - 37.4 °F 25% 29.83 in 10.0 mi North 3.5 mph - N/A   Unknown
2:15 PM 77.0 °F - 35.6 °F 22% 29.82 in 10.0 mi WSW 3.5 mph - N/A   Unknown
2:35 PM 77.0 °F - 30.2 °F 18% 29.81 in 10.0 mi Calm Calm - N/A   Unknown
2:55 PM 80.6 °F - 30.2 °F 16% 29.80 in 10.0 mi SW 3.5 mph - N/A   Unknown
3:15 PM 80.6 °F - 26.6 °F 14% 29.80 in 10.0 mi WSW 4.6 mph - N/A   Unknown
4:15 PM 80.6 °F - 33.8 °F 18% 29.78 in 10.0 mi WSW 3.5 mph - N/A   Unknown
4:35 PM 80.6 °F - 33.8 °F 18% 29.78 in 10.0 mi Calm Calm - N/A   Unknown
4:55 PM 82.4 °F - 33.8 °F 17% 29.77 in 10.0 mi SW 4.6 mph - N/A   Unknown
5:15 PM 80.6 °F - 33.8 °F 18% 29.77 in 10.0 mi SW 3.5 mph - N/A   Unknown
5:35 PM 80.6 °F - 33.8 °F 18% 29.77 in 10.0 mi SW 3.5 mph - N/A   Unknown
5:55 PM 78.8 °F - 35.6 °F 21% 29.76 in 10.0 mi WSW 3.5 mph - N/A   Unknown
6:15 PM 73.4 °F - 39.2 °F 29% 29.77 in 10.0 mi Calm Calm - N/A   Unknown
6:55 PM 66.2 °F - 39.2 °F 37% 29.79 in 10.0 mi NE 3.5 mph - N/A   Unknown
7:15 PM 62.6 °F - 39.2 °F 42% 29.80 in 10.0 mi North 4.6 mph - N/A   Unknown
7:35 PM 59.0 °F - 39.2 °F 48% 29.82 in 10.0 mi Calm Calm - N/A   Unknown
7:55 PM 57.2 °F - 39.2 °F 51% 29.83 in 10.0 mi Calm Calm - N/A   Unknown
8:15 PM 55.4 °F - 39.2 °F 54% 29.85 in 10.0 mi Calm Calm - N/A   Unknown
8:55 PM 55.4 °F - 41.0 °F 58% 29.88 in 10.0 mi Calm Calm - N/A   Unknown
9:15 PM 53.6 °F - 41.0 °F 62% 29.90 in 10.0 mi Calm Calm - N/A   Unknown
9:35 PM 53.6 °F - 41.0 °F 62% 29.91 in 10.0 mi Calm Calm - N/A   Unknown
9:55 PM 53.6 °F - 42.8 °F 67% 29.92 in 10.0 mi Calm Calm - N/A   Unknown
10:15 PM 51.8 °F - 42.8 °F 71% 29.93 in 10.0 mi Calm Calm - N/A   Unknown
10:35 PM 50.0 °F - 42.8 °F 76% 29.94 in 10.0 mi Calm Calm - N/A   Unknown
10:55 PM 51.8 °F - 42.8 °F 71% 29.95 in 10.0 mi Calm Calm - N/A   Unknown
11:15 PM 50.0 °F - 42.8 °F 76% 29.96 in 10.0 mi Calm Calm - N/A   Unknown
11:35 PM 50.0 °F - 42.8 °F 76% 29.96 in 10.0 mi Calm Calm - N/A   Unknown
11:55 PM 50.0 °F - 44.6 °F 82% 29.97 in 10.0 mi Calm Calm - N/A   Unknown